Biloxi, MS

2:36 PM CDT on October 18, 2017 (GMT -0500)
Keesler Air Force Base

Weather History for KBIX - October, 2010

Change the Weather History Date:

Tuesday, October 26, 2010

  Actual Average Record
Temperature  
Mean Temperature 80 °F -  
Max Temperature 84 °F 76 °F 86 °F (1978)
Min Temperature 76 °F 55 °F 40 °F (1955)
Cooling Degree Days 15    
Growing Degree Days 30 (Base 50)    
Moisture  
Dew Point 76 °F    
Average Humidity 89    
Maximum Humidity 97    
Minimum Humidity 74    
Precipitation  
Precipitation 0.00 in - - ()
Sea Level Pressure  
Sea Level Pressure 29.83 in    
Wind  
Wind Speed 14 mph (SSE)    
Max Wind Speed 37 mph    
Max Gust Speed 70 mph    
Visibility 10 miles    
Events      
Averages and records for this station are not official NWS values.
T = Trace of Precipitation, MM = Missing Value Source: NWS Daily Summary

Daily Weather History Graph

Daily Weather History Graph

Search for Another Location

Airport or City:

Trip Planner

Search our weather history database for the weather conditions in past years. The results will help you decide how hot, cold, wet, or windy it might be!

Date:

Astronomy

Oct. 26, 2010 Rise Set
Actual Time 7:05 AM CDT 6:13 PM CDT
Civil Twilight 6:40 AM CDT 6:37 PM CDT
Nautical Twilight 6:12 AM CDT 7:06 PM CDT
Astronomical Twilight 5:44 AM CDT 7:33 PM CDT
Moon 8:51 PM CDT (10/26) 10:30 AM CDT (10/26)
Length of Visible Light 11h 56m
Length of Day
11h 07m
Waning Gibbous, 87% of the Moon is Illuminated
Oct 26
Waning Gibbous
Oct 30
Last Quarter
Nov 5
New
Nov 13
First Quarter
Nov 21
Full

Hourly Weather History & Observations

Time (CDT) Temp. Heat Index Dew Point Humidity Pressure Visibility Wind Dir Wind Speed Gust Speed Precip Events Conditions
12:05 AM 77.0 °F - 75.2 °F 94% 29.79 in 10.0 mi SSW 12.7 mph - N/A   Scattered Clouds
12:06 AM 77.0 °F - 75.2 °F 94% 29.79 in 10.0 mi SSW 16.1 mph - N/A   Mostly Cloudy
12:08 AM 77.0 °F - 75.2 °F 94% 29.79 in 10.0 mi SSW 16.1 mph - N/A   Scattered Clouds
12:12 AM 77.0 °F - 75.2 °F 94% 29.79 in 10.0 mi SSW 13.8 mph - N/A   Mostly Cloudy
12:32 AM 77.0 °F - 75.2 °F 94% 29.79 in 10.0 mi SSW 12.7 mph - N/A   Scattered Clouds
12:55 AM 76.8 °F - 75.2 °F 95% 29.78 in 10.0 mi South 13.8 mph 19.6 mph N/A   Clear
1:55 AM 76.8 °F - 75.0 °F 94% 29.79 in 10.0 mi NW 3.5 mph 18.4 mph N/A   Clear
2:05 AM 77.0 °F - 75.2 °F 94% 29.78 in 10.0 mi SSW 36.8 mph - N/A   Squalls
2:06 AM 77.0 °F - 75.2 °F 94% 29.78 in 10.0 mi West 24.2 mph 70.2 mph N/A   Squalls
2:23 AM 77.0 °F - 75.2 °F 94% 29.78 in 10.0 mi ENE 13.8 mph - N/A   Mostly Cloudy
2:35 AM 77.0 °F - 75.2 °F 94% 29.78 in 10.0 mi ENE 15.0 mph - N/A   Scattered Clouds
2:55 AM 76.8 °F - 75.0 °F 94% 29.78 in 10.0 mi ENE 15.0 mph - N/A   Partly Cloudy
3:55 AM 76.8 °F - 74.7 °F 93% 29.78 in 10.0 mi ENE 12.7 mph - N/A   Clear
4:55 AM 76.6 °F - 74.5 °F 93% 29.78 in 10.0 mi East 11.5 mph - N/A   Clear
5:55 AM 76.6 °F - 74.8 °F 94% 29.80 in 10.0 mi East 11.5 mph - N/A   Partly Cloudy
6:13 AM 77.0 °F - 75.2 °F 94% 29.80 in 10.0 mi ENE 11.5 mph - N/A   Mostly Cloudy
6:25 AM 77.0 °F - 75.2 °F 94% 29.80 in 10.0 mi ENE 10.4 mph - N/A   Mostly Cloudy
6:31 AM 77.0 °F - 75.2 °F 94% 29.80 in 10.0 mi ENE 10.4 mph - N/A   Mostly Cloudy
6:39 AM 77.0 °F - 75.2 °F 94% 29.80 in 10.0 mi East 12.7 mph - N/A   Overcast
6:44 AM 77.0 °F - 75.2 °F 94% 29.80 in 10.0 mi East 11.5 mph - N/A   Overcast
6:55 AM 76.8 °F - 75.4 °F 95% 29.80 in 10.0 mi ENE 10.4 mph - N/A   Mostly Cloudy
6:56 AM 77.0 °F - 75.2 °F 94% 29.80 in 10.0 mi ENE 9.2 mph - N/A   Scattered Clouds
7:55 AM 77.7 °F - 75.2 °F 92% 29.82 in 10.0 mi ENE 11.5 mph - N/A   Clear
8:25 AM 78.8 °F - 75.2 °F 89% 29.84 in 10.0 mi East 10.4 mph - N/A   Mostly Cloudy
8:55 AM 80.2 °F 85.4 °F 75.0 °F 84% 29.85 in 10.0 mi East 12.7 mph - N/A   Mostly Cloudy
8:56 AM 80.6 °F 86.2 °F 75.2 °F 84% 29.84 in 10.0 mi East 12.7 mph - N/A   Mostly Cloudy
9:25 AM 80.6 °F 86.2 °F 75.2 °F 84% 29.86 in 10.0 mi ENE 12.7 mph - N/A   Scattered Clouds
9:30 AM 80.6 °F 86.2 °F 75.2 °F 84% 29.86 in 10.0 mi ENE 10.4 mph - N/A   Mostly Cloudy
9:55 AM 79.9 °F - 75.0 °F 85% 29.86 in 10.0 mi East 12.7 mph - N/A   Overcast
10:23 AM 80.6 °F 86.2 °F 75.2 °F 84% 29.86 in 10.0 mi ENE 11.5 mph - N/A   Mostly Cloudy
10:55 AM 83.3 °F 90.8 °F 75.0 °F 76% 29.86 in 10.0 mi East 16.1 mph 20.7 mph N/A   Scattered Clouds
11:04 AM 82.4 °F 89.5 °F 75.2 °F 79% 29.86 in 10.0 mi East 16.1 mph - N/A   Mostly Cloudy
11:55 AM 82.9 °F 90.2 °F 75.2 °F 77% 29.86 in 10.0 mi South 15.0 mph - N/A   Mostly Cloudy
12:10 PM 84.2 °F 92.3 °F 75.2 °F 74% 29.86 in 10.0 mi South 11.5 mph - N/A   Mostly Cloudy
12:24 PM 82.4 °F 89.5 °F 75.2 °F 79% 29.85 in 10.0 mi South 11.5 mph - N/A   Mostly Cloudy
12:55 PM 83.5 °F 91.2 °F 75.4 °F 76% 29.84 in 10.0 mi South 13.8 mph 19.6 mph N/A   Scattered Clouds
1:55 PM 83.8 °F 92.1 °F 75.4 °F 76% 29.83 in 10.0 mi South 13.8 mph - N/A   Mostly Cloudy
2:55 PM 83.5 °F 91.2 °F 75.4 °F 76% 29.81 in 10.0 mi South 12.7 mph - N/A   Scattered Clouds
3:55 PM 83.3 °F 91.1 °F 75.6 °F 77% 29.81 in 10.0 mi SSW 12.7 mph - N/A   Partly Cloudy
4:55 PM 81.9 °F 88.9 °F 75.9 °F 82% 29.80 in 10.0 mi South 11.5 mph - N/A   Clear
5:55 PM 80.2 °F 85.5 °F 75.4 °F 85% 29.81 in 10.0 mi SSW 15.0 mph - N/A   Partly Cloudy
6:55 PM 79.0 °F - 75.9 °F 90% 29.83 in 10.0 mi SSW 12.7 mph - N/A   Clear
7:55 PM 78.8 °F - 76.5 °F 92% 29.85 in 10.0 mi SSW 12.7 mph - N/A   Clear
8:55 PM 78.6 °F - 76.6 °F 94% 29.86 in 10.0 mi SSW 12.7 mph - N/A   Clear
9:55 PM 78.4 °F - 76.6 °F 94% 29.87 in 10.0 mi SSW 11.5 mph 20.7 mph N/A   Clear
10:55 PM 78.4 °F - 76.6 °F 94% 29.89 in 10.0 mi SSW 13.8 mph - N/A   Clear
11:39 PM 78.8 °F - 77.0 °F 94% 29.89 in 10.0 mi SSW 11.5 mph - N/A   Scattered Clouds
11:44 PM 78.8 °F - 77.0 °F 94% 29.89 in 10.0 mi SSW 11.5 mph - N/A   Mostly Cloudy
11:45 PM 78.8 °F - 77.0 °F 94% 29.89 in 10.0 mi SSW 10.4 mph - N/A   Mostly Cloudy
11:46 PM 78.8 °F - 77.0 °F 94% 29.89 in 10.0 mi SSW 11.5 mph - N/A   Scattered Clouds
11:47 PM 78.8 °F - 77.0 °F 94% 29.89 in 10.0 mi SSW 12.7 mph - N/A   Mostly Cloudy
11:53 PM 78.8 °F - 77.0 °F 94% 29.89 in 10.0 mi South 11.5 mph - N/A   Mostly Cloudy
11:55 PM 78.3 °F - 77.4 °F 97% 29.89 in 10.0 mi South 10.4 mph - N/A   Mostly Cloudy